Location: Erp
(42.9417°N, 1.2009°E)
Time: 06:54:26
(UTC+00:00)

ISS - Visible Passes

Search period start: 12 March 2026 00:00
Search period end: 22 March 2026 00:00
Orbit: 415 x 426 km, 51.6° (Epoch: 11 March)

Date Brightness Start Highest point End Pass type
(mag) Time Alt. Az. Time Alt. Az. Time Alt. Az.
12 Mar -3.8 19:30:45 10° WSW 19:34:09 83° NNW 19:34:57 50° NE visible
13 Mar -3.7 18:43:44 10° SW 18:47:06 61° SE 18:50:16 11° ENE visible
13 Mar -1.5 20:21:08 10° W 20:23:17 25° NW 20:23:17 25° NW visible
14 Mar -2.4 19:33:43 10° W 19:36:54 36° NNW 19:38:28 23° NNE visible
15 Mar -3.0 18:46:23 10° WSW 18:49:42 52° NNW 18:53:03 10° NE visible
15 Mar -1.2 20:24:30 10° WNW 20:26:30 19° NNW 20:26:30 19° NNW visible
16 Mar -1.7 19:36:59 10° WNW 19:39:47 23° NNW 19:41:26 16° NNE visible
17 Mar -1.9 18:49:29 10° W 18:52:28 28° NNW 18:55:28 10° NE visible
17 Mar -1.1 20:27:37 10° NW 20:29:17 17° NNW 20:29:17 17° NNW visible
18 Mar -1.5 19:40:12 10° NW 19:42:43 19° N 19:44:04 15° NNE visible
19 Mar -1.5 18:52:43 10° WNW 18:55:19 20° N 18:57:55 10° NE visible
19 Mar -1.2 20:30:16 10° NW 20:31:48 18° NNW 20:31:48 18° NNW visible
20 Mar -1.7 19:43:02 10° NW 19:45:36 20° N 19:46:31 18° NNE visible
21 Mar -1.5 18:55:41 10° NW 18:58:10 19° N 19:00:39 10° NE visible
21 Mar -1.4 20:32:35 10° NW 20:34:11 22° NNW 20:34:11 22° NNW visible
